GW7271 Weather Reports


time (UTC)temp
F
wind
direction
speed
knots
gust
knots
rain 1hr
in
rain 24hr
in
rain mn
in
humidity
%
barometer
mb
20260509042616 44 185 0.0 0.9 0.00 0.00 0.00 52 1006.4
20260509042112 45 187 0.9 0.9 0.00 0.00 0.00 52 1006.3
20260509041609 45 187 0.9 0.9 0.00 0.00 0.00 52 1006.2
20260509041107 45 187 0.0 0.0 0.00 0.00 0.00 52 1006.3
20260509040605 45 187 0.9 0.9 0.00 0.00 0.00 53 1006.4
20260509040101 44 187 0.0 1.7 0.00 0.00 0.00 56 1006.5
20260509035558 44 195 1.7 2.6 0.00 0.00 0.00 58 1006.5
20260509035055 44 194 0.9 0.9 0.00 0.00 0.00 56 1006.7
20260509034553 44 196 0.9 0.9 0.00 0.00 0.00 64 1006.4
20260509034050 45 196 0.9 0.9 0.00 0.00 0.00 64 1006.6
20260509033547 45 196 0.9 0.9 0.00 0.00 0.00 58 1006.4
20260509033044 45 196 0.9 0.9 0.00 0.00 0.00 57 1006.7
20260509032541 45 196 0.0 0.9 0.00 0.00 0.00 63 1006.5
20260509032038 46 196 1.7 1.7 0.00 0.00 0.00 62 1006.8
20260509031536 46 196 1.7 1.7 0.00 0.00 0.00 60 1006.8
20260509031033 46 195 1.7 1.7 0.00 0.00 0.00 55 1006.7
20260509030531 46 196 1.7 1.7 0.00 0.00 0.00 59 1006.8
20260509030027 45 197 0.9 1.7 0.00 0.00 0.00 61 1007.0
20260509025523 46 203 0.0 0.9 0.00 0.00 0.00 61 1007.1
20260509025019 47 203 1.7 1.7 0.00 0.00 0.00 55 1007.0
20260509024515 48 202 0.9 0.9 0.00 0.00 0.00 47 1007.1
20260509024012 48 203 0.9 0.9 0.00 0.00 0.00 47 1007.3
20260509023509 48 202 0.9 0.9 0.00 0.00 0.00 47 1007.0
20260509023006 48 203 0.0 0.9 0.00 0.00 0.00 48 1007.1
20260509022502 47 202 0.9 0.9 0.00 0.00 0.00 48 1007.1
20260509022000 48 202 0.0 0.9 0.00 0.00 0.00 54 1007.2
20260509021457 48 203 1.7 1.7 0.00 0.00 0.00 47 1007.1
20260509020954 49 203 0.9 0.0 0.00 0.00 0.00 44 1007.5
20260509020453 49 202 0.9 0.9 0.00 0.00 0.00 46 1007.1
20260509015949 49 203 0.9 0.9 0.00 0.00 0.00 49 1007.2
20260509015448 49 203 0.0 0.0 0.00 0.00 0.00 53 1007.3
20260509014944 50 202 0.9 1.7 0.00 0.00 0.00 49 1007.3
20260509014441 50 203 0.0 1.7 0.00 0.00 0.00 46 1007.4
20260509013937 49 202 1.7 1.7 0.00 0.00 0.00 44 1007.2
20260509013434 50 203 0.0 0.9 0.00 0.00 0.00 45 1007.2
20260509012930 50 203 0.9 0.9 0.00 0.00 0.00 44 1006.9
20260509012427 51 203 0.0 0.0 0.00 0.00 0.00 39 1007.0
20260509011924 52 203 0.9 0.9 0.00 0.00 0.00 40 1007.2
20260509011421 53 203 0.0 1.7 0.00 0.00 0.00 42 1007.0
20260509010919 53 200 0.9 2.6 0.00 0.00 0.00 37 1007.2
20260509010416 53 199 1.7 1.7 0.00 0.00 0.00 39 1007.2
20260509005913 55 199 0.0 0.0 0.00 0.00 0.00 36 1007.0
20260509005411 56 199 0.9 0.9 0.00 0.00 0.00 35 1007.0
20260509004911 56 208 1.7 1.7 0.00 0.00 0.00 32 1007.2
20260509004408 57 218 1.7 1.7 0.00 0.00 0.00 33 1007.1
20260509003905 58 192 1.7 1.7 0.00 0.00 0.00 33 1007.0
20260509003403 58 226 2.6 2.6 0.00 0.00 0.00 32 1006.9
20260509002900 59 267 1.7 2.6 0.00 0.00 0.00 29 1007.0
20260509002358 59 276 1.7 1.7 0.00 0.00 0.00 30 1007.0
20260509001855 60 273 3.5 5.2 0.00 0.00 0.00 27 1007.2
20260509001351 60 286 3.5 3.5 0.00 0.00 0.00 28 1007.0
20260509000848 60 263 2.6 3.5 0.00 0.00 0.00 27 1007.0
20260509000348 60 243 4.3 6.1 0.00 0.00 0.00 25 1007.2
20260508235842 60 285 1.7 3.5 0.00 0.00 0.00 27 1007.2
20260508235339 60 292 4.3 7.0 0.00 0.00 0.00 25 1007.1
20260508234836 61 314 4.3 7.0 0.00 0.00 0.00 26 1007.2
20260508234332 61 270 3.5 7.0 0.00 0.00 0.00 25 1007.2
20260508233831 62 291 5.2 6.1 0.00 0.00 0.00 24 1007.0
20260508233330 62 307 1.7 6.1 0.00 0.00 0.00 24 1007.1
20260508232826 63 219 0.9 7.0 0.00 0.00 0.00 24 1007.1
20260508232323 63 299 1.7 3.5 0.00 0.00 0.00 24 1006.8
20260508231822 63 255 4.3 7.0 0.00 0.00 0.00 24 1006.9
20260508231317 63 286 5.2 7.8 0.00 0.00 0.00 23 1007.0
20260508230814 63 288 5.2 7.8 0.00 0.00 0.00 22 1006.8
20260508230311 63 286 5.2 11.3 0.00 0.00 0.00 24 1006.9
20260508225808 63 249 12.2 16.5 0.00 0.00 0.00 22 1006.7
20260508225306 63 244 3.5 9.6 0.00 0.00 0.00 23 1006.8
20260508224803 64 261 7.0 8.7 0.00 0.00 0.00 22 1006.8
20260508224300 64 266 6.1 7.8 0.00 0.00 0.00 21 1006.8
20260508223757 64 289 2.6 3.5 0.00 0.00 0.00 21 1007.0
20260508223255 64 298 7.0 9.6 0.00 0.00 0.00 21 1007.0
20260508222752 64 295 5.2 7.0 0.00 0.00 0.00 22 1006.8
20260508222249 64 224 8.7 8.7 0.00 0.00 0.00 23 1006.8
20260508221746 64 292 3.5 7.8 0.00 0.00 0.00 23 1006.7
20260508221241 64 287 4.3 12.2 0.00 0.00 0.00 22 1007.0
20260508220737 64 261 7.0 9.6 0.00 0.00 0.00 22 1006.8
20260508220234 64 298 3.5 9.6 0.00 0.00 0.00 21 1006.7
20260508215731 64 253 7.8 8.7 0.00 0.00 0.00 22 1007.0
20260508215227 64 281 5.2 12.2 0.00 0.00 0.00 22 1006.9
20260508214725 64 247 6.1 9.6 0.00 0.00 0.00 22 1007.0
20260508214222 64 278 8.7 11.3 0.00 0.00 0.00 21 1006.9
20260508213718 64 247 5.2 7.0 0.00 0.00 0.00 22 1006.9
20260508213215 65 296 6.1 11.3 0.00 0.00 0.00 22 1006.9
20260508212711 64 256 7.0 13.0 0.00 0.00 0.00 20 1006.7
20260508212208 64 300 7.0 11.3 0.00 0.00 0.00 20 1007.0
20260508211703 64 216 6.1 18.2 0.00 0.00 0.00 22 1007.0
20260508211159 64 242 5.2 8.7 0.00 0.00 0.00 23 1007.0
20260508210657 64 276 7.8 8.7 0.00 0.00 0.00 21 1007.1
20260508210154 64 303 8.7 11.3 0.00 0.00 0.00 21 1007.2
20260508205651 65 276 6.1 7.8 0.00 0.00 0.00 21 1007.2
20260508205147 64 329 4.3 7.0 0.00 0.00 0.00 23 1007.2
20260508204643 64 268 7.0 8.7 0.00 0.00 0.00 22 1007.3
20260508204140 64 286 8.7 9.6 0.00 0.00 0.00 22 1007.1
20260508203636 64 290 2.6 7.8 0.00 0.00 0.00 21 1007.4
20260508203132 65 250 3.5 9.6 0.00 0.00 0.00 22 1007.4
20260508202629 64 336 4.3 8.7 0.00 0.00 0.00 23 1007.4
20260508202126 64 285 6.1 8.7 0.00 0.00 0.00 23 1007.4
20260508201622 64 189 6.1 11.3 0.00 0.00 0.00 24 1007.4
20260508201119 64 287 7.0 14.8 0.00 0.00 0.00 23 1007.7
20260508200616 65 323 3.5 9.6 0.00 0.00 0.00 23 1007.7
20260508200112 64 50 2.6 9.6 0.00 0.00 0.00 23 1007.7
20260508195609 64 310 0.9 7.8 0.00 0.00 0.00 23 1007.7
20260508195105 63 216 7.0 8.7 0.00 0.00 0.00 23 1007.9
20260508194602 63 251 3.5 6.1 0.00 0.00 0.00 23 1008.1
20260508194059 63 312 6.1 9.6 0.00 0.00 0.00 22 1008.2
20260508193555 63 280 7.8 12.2 0.00 0.00 0.00 24 1008.2
20260508193052 63 287 5.2 9.6 0.00 0.00 0.00 24 1008.6
20260508192549 62 148 0.9 2.6 0.00 0.00 0.00 24 1008.4
20260508192046 62 235 13.0 15.6 0.00 0.00 0.00 25 1008.6
20260508191543 62 295 6.1 9.6 0.00 0.00 0.00 25 1008.5
20260508191039 62 250 8.7 12.2 0.00 0.00 0.00 26 1008.4
20260508190537 62 277 6.1 8.7 0.00 0.00 0.00 27 1008.6
20260508190033 62 250 7.8 13.9 0.00 0.00 0.00 27 1008.6
20260508185530 61 208 5.2 7.8 0.00 0.00 0.00 28 1008.7
20260508185028 62 219 11.3 15.6 0.00 0.00 0.00 25 1008.8
20260508184525 62 288 3.5 7.0 0.00 0.00 0.00 25 1009.0
20260508184022 62 282 3.5 6.1 0.00 0.00 0.00 26 1008.9
20260508183519 62 172 5.2 7.8 0.00 0.00 0.00 26 1008.9
20260508183014 61 305 7.8 11.3 0.00 0.00 0.00 31 1009.1
20260508182511 62 258 6.1 7.0 0.00 0.00 0.00 25 1009.0
20260508182007 61 265 6.1 12.2 0.00 0.00 0.00 28 1009.1
20260508181503 61 229 9.6 11.3 0.00 0.00 0.00 28 1009.1
20260508181001 61 250 7.8 11.3 0.00 0.00 0.00 27 1009.1
20260508180457 62 220 7.8 8.7 0.00 0.00 0.00 26 1009.2
20260508175953 60 218 5.2 7.0 0.00 0.00 0.00 28 1009.4
20260508175450 61 245 5.2 11.3 0.00 0.00 0.00 28 1009.5
20260508174948 61 255 5.2 7.8 0.00 0.00 0.00 28 1009.5
20260508174445 61 282 3.5 6.1 0.00 0.00 0.00 31 1009.5
20260508173942 60 323 3.5 7.8 0.00 0.00 0.00 31 1009.6
20260508173439 60 210 10.4 13.9 0.00 0.00 0.00 28 1009.8
20260508172934 59 233 7.0 8.7 0.00 0.00 0.00 28 1009.8
20260508172432 60 234 11.3 13.0 0.00 0.00 0.00 29 1009.7
20260508171928 59 261 5.2 7.8 0.00 0.00 0.00 31 1010.0
20260508171425 59 277 6.1 7.8 0.00 0.00 0.00 30 1010.3
20260508170922 60 283 0.9 7.8 0.00 0.00 0.00 30 1010.1
20260508170419 59 216 7.0 13.0 0.00 0.00 0.00 30 1010.3
20260508165915 60 267 8.7 13.9 0.00 0.00 0.00 29 1010.5
20260508165414 58 245 3.5 6.1 0.00 0.00 0.00 29 1010.4
20260508164909 58 253 5.2 8.7 0.00 0.00 0.00 30 1010.6
20260508164407 58 286 5.2 8.7 0.00 0.00 0.00 31 1010.6
20260508163904 58 245 11.3 13.9 0.00 0.00 0.00 30 1010.5
20260508163402 58 269 3.5 7.8 0.00 0.00 0.00 29 1010.6
20260508162856 58 280 6.1 8.7 0.00 0.00 0.00 30 1011.0
20260508162354 58 193 7.8 9.6 0.00 0.00 0.00 29 1010.6
20260508161851 57 211 9.6 11.3 0.00 0.00 0.00 31 1010.7
20260508161348 58 258 2.6 7.0 0.00 0.00 0.00 30 1010.9
20260508160845 58 210 7.0 8.7 0.00 0.00 0.00 32 1010.7
20260508160344 58 208 10.4 13.9 0.00 0.00 0.00 31 1010.9
20260508155840 57 284 5.2 6.1 0.00 0.00 0.00 34 1011.1
20260508155337 57 266 3.5 7.0 0.00 0.00 0.00 34 1010.9
20260508154834 57 231 3.5 8.7 0.00 0.00 0.00 31 1011.0
20260508154332 57 261 6.1 9.6 0.00 0.00 0.00 31 1010.9
20260508153828 56 202 7.0 7.8 0.00 0.00 0.00 31 1011.0
20260508153326 57 263 4.3 13.0 0.00 0.00 0.00 29 1011.2
20260508152821 56 146 0.0 0.9 0.00 0.00 0.00 36 1011.0
20260508152318 56 244 4.3 7.8 0.00 0.00 0.00 33 1011.2
20260508151814 55 274 3.5 7.0 0.00 0.00 0.00 34 1011.3
20260508151312 56 279 5.2 7.8 0.00 0.00 0.00 33 1011.3
20260508150808 56 290 1.7 6.1 0.00 0.00 0.00 33 1011.2
20260508150305 56 244 8.7 8.7 0.00 0.00 0.00 34 1011.3
20260508145801 56 167 7.0 7.8 0.00 0.00 0.00 34 1011.4
20260508145257 55 222 1.7 6.1 0.00 0.00 0.00 38 1011.5
20260508144753 55 159 2.6 6.1 0.00 0.00 0.00 35 1011.4
20260508144252 55 273 4.3 7.0 0.00 0.00 0.00 36 1011.5
20260508143749 55 162 3.5 5.2 0.00 0.00 0.00 36 1011.3
20260508143246 54 211 5.2 6.1 0.00 0.00 0.00 37 1011.3
20260508142742 54 223 6.1 7.0 0.00 0.00 0.00 44 1011.6
20260508142239 53 286 4.3 5.2 0.00 0.00 0.00 45 1011.6
20260508141736 53 206 5.2 8.7 0.00 0.00 0.00 43 1011.5
20260508141233 53 201 2.6 5.2 0.00 0.00 0.00 48 1011.9
20260508140730 53 204 2.6 5.2 0.00 0.00 0.00 45 1011.8
20260508140227 53 176 2.6 5.2 0.00 0.00 0.00 47 1011.8
20260508135723 52 181 2.6 5.2 0.00 0.00 0.00 50 1012.0
20260508135219 51 191 3.5 3.5 0.00 0.00 0.00 52 1012.0
20260508134715 51 153 2.6 3.5 0.00 0.00 0.00 51 1011.8
20260508134213 51 252 2.6 5.2 0.00 0.00 0.00 54 1011.7
20260508133709 51 219 3.5 3.5 0.00 0.00 0.00 55 1011.9
20260508133207 50 231 4.3 6.1 0.00 0.00 0.00 55 1011.9
20260508132704 50 195 6.1 7.8 0.00 0.00 0.00 54 1012.0
20260508132201 49 246 2.6 5.2 0.00 0.00 0.00 57 1012.0
20260508131657 49 165 5.2 6.1 0.00 0.00 0.00 55 1012.1
20260508131154 49 205 4.3 6.1 0.00 0.00 0.00 59 1012.1
20260508130650 48 198 3.5 6.1 0.00 0.00 0.00 63 1011.9
20260508130148 47 178 2.6 5.2 0.00 0.00 0.00 63 1012.2
20260508125643 47 168 3.5 5.2 0.00 0.00 0.00 66 1012.1
20260508125140 46 190 3.5 5.2 0.00 0.00 0.00 67 1011.9
20260508124638 46 179 2.6 3.5 0.00 0.00 0.00 69 1012.0
20260508124135 45 188 4.3 3.5 0.00 0.00 0.00 69 1012.1
20260508123633 44 196 1.7 2.6 0.00 0.00 0.00 72 1011.9
20260508123131 44 185 2.6 3.5 0.00 0.00 0.00 73 1012.0
20260508122626 43 219 2.6 2.6 0.00 0.00 0.00 78 1012.0
20260508122124 42 197 1.7 2.6 0.00 0.00 0.00 78 1011.9
20260508121622 42 208 1.7 1.7 0.00 0.00 0.00 79 1011.9
20260508121120 41 201 1.7 2.6 0.00 0.00 0.00 79 1012.0
20260508120617 40 202 1.7 1.7 0.00 0.00 0.00 83 1011.8
20260508120115 39 202 0.9 1.7 0.00 0.00 0.00 86 1012.1
20260508115612 38 127 0.0 0.0 0.00 0.00 0.00 89 1011.4
20260508115109 37 126 0.0 0.0 0.00 0.00 0.00 91 1011.6
20260508114606 37 126 0.0 0.0 0.00 0.00 0.00 92 1011.7
20260508114102 36 127 0.0 0.0 0.00 0.00 0.00 92 1011.5
20260508113559 35 127 0.0 0.0 0.00 0.00 0.00 93 1011.6
20260508113058 35 126 0.0 0.0 0.00 0.00 0.00 93 1011.5
20260508112553 35 126 0.0 0.0 0.00 0.00 0.00 93 1011.4
20260508112050 35 126 0.0 0.0 0.00 0.00 0.00 93 1011.2
20260508111547 34 126 0.0 0.0 0.00 0.00 0.00 93 1011.3
20260508111044 34 126 0.0 0.0 0.00 0.00 0.00 93 1011.3
20260508110543 34 126 0.0 0.0 0.00 0.00 0.00 93 1011.4
20260508110038 33 126 0.0 0.0 0.00 0.00 0.00 93 1011.4
20260508105533 33 125 0.0 0.0 0.00 0.00 0.00 93 1011.1
20260508105031 34 125 0.0 0.0 0.00 0.00 0.00 93 1011.2
20260508104529 34 125 0.0 0.0 0.00 0.00 0.00 93 1011.2
20260508104024 33 125 0.0 0.0 0.00 0.00 0.00 93 1011.2
20260508103521 33 125 0.0 0.0 0.00 0.00 0.00 93 1011.3
20260508103019 33 125 0.0 0.0 0.00 0.00 0.00 92 1011.3
20260508102517 34 126 0.0 0.0 0.00 0.00 0.00 92 1011.3
20260508102014 34 126 0.0 0.0 0.00 0.00 0.00 92 1011.2
20260508101512 34 125 0.0 0.0 0.00 0.00 0.00 92 1011.4
20260508101008 34 125 0.0 0.0 0.00 0.00 0.00 92 1011.4
20260508100507 34 125 0.0 0.0 0.00 0.00 0.00 92 1011.4
20260508100003 34 125 0.0 0.0 0.00 0.00 0.00 92 1011.3
20260508095500 34 126 0.0 0.0 0.00 0.00 0.00 91 1011.4
20260508094957 35 125 0.0 0.0 0.00 0.00 0.00 91 1011.5
20260508094454 35 125 0.0 0.0 0.00 0.00 0.00 92 1011.5
20260508093950 35 125 0.0 0.0 0.00 0.00 0.00 91 1011.4
20260508093448 35 125 0.0 0.0 0.00 0.00 0.00 91 1011.4
20260508092946 35 125 0.0 0.0 0.00 0.00 0.00 91 1011.2
20260508092443 35 125 0.0 0.0 0.00 0.00 0.00 91 1011.6
20260508091942 35 125 0.0 0.0 0.00 0.00 0.00 91 1011.5
20260508091438 35 125 0.0 0.0 0.00 0.00 0.00 90 1011.5
20260508090935 35 125 0.0 0.0 0.00 0.00 0.00 90 1011.4
20260508090434 35 125 0.0 0.0 0.00 0.00 0.00 89 1011.3
20260508085929 35 125 0.0 0.0 0.00 0.00 0.00 88 1011.4
20260508085426 36 125 0.0 0.0 0.00 0.00 0.00 88 1011.4
20260508084923 35 125 0.0 0.0 0.00 0.00 0.00 89 1011.6
20260508084419 35 125 0.0 0.0 0.00 0.00 0.00 89 1011.5
20260508083918 36 125 0.0 0.0 0.00 0.00 0.00 88 1011.4
20260508083415 36 125 0.0 0.0 0.00 0.00 0.00 88 1011.5
20260508082914 36 125 0.0 0.0 0.00 0.00 0.00 88 1011.4
20260508082412 36 125 0.0 0.0 0.00 0.00 0.00 88 1011.8
20260508081910 36 125 0.0 0.0 0.00 0.00 0.00 88 1011.6
20260508081406 36 125 0.0 0.0 0.00 0.00 0.00 87 1011.6
20260508080903 37 125 0.0 0.0 0.00 0.00 0.00 85 1011.8
20260508080401 37 126 0.0 0.0 0.00 0.00 0.00 84 1011.6
20260508075857 37 125 0.9 0.0 0.00 0.00 0.00 85 1011.8
20260508075354 37 125 0.0 0.0 0.00 0.00 0.00 84 1011.6
20260508074852 38 126 0.0 0.0 0.00 0.00 0.00 84 1011.7
20260508074349 38 127 0.0 0.9 0.00 0.00 0.00 84 1011.7
20260508073846 39 127 0.9 0.9 0.00 0.00 0.00 83 1011.7
20260508073344 39 127 0.0 0.9 0.00 0.00 0.00 83 1011.8
20260508072840 39 127 0.9 0.9 0.00 0.00 0.00 83 1011.8
20260508072336 39 127 0.9 0.9 0.00 0.00 0.00 83 1011.8
20260508071834 39 127 1.7 1.7 0.00 0.00 0.00 82 1011.9
20260508071333 39 127 1.7 1.7 0.00 0.00 0.00 83 1011.7
20260508070830 39 127 1.7 1.7 0.00 0.00 0.00 82 1011.7
20260508070328 39 126 0.0 0.0 0.00 0.00 0.00 82 1011.9
20260508065825 39 126 0.0 0.0 0.00 0.00 0.00 82 1011.6
20260508065323 39 126 0.0 0.0 0.00 0.00 0.00 82 1011.8
20260508064821 39 126 0.0 0.0 0.00 0.00 0.00 81 1011.6
20260508064318 40 126 0.0 0.0 0.00 0.00 0.00 81 1011.6
20260508063815 40 126 0.0 0.0 0.00 0.00 0.00 81 1011.7
20260508063313 40 127 0.0 0.0 0.00 0.00 0.00 81 1011.6
20260508062810 40 127 0.0 0.0 0.00 0.00 0.00 80 1011.7
20260508062308 41 127 0.9 0.9 0.00 0.00 0.00 80 1011.8
20260508061804 41 126 1.7 1.7 0.00 0.00 0.00 78 1012.0
20260508061302 41 105 1.7 1.7 0.00 0.00 0.00 79 1012.0
20260508060758 40 93 0.0 0.9 0.00 0.00 0.00 78 1011.8
20260508060256 41 93 0.0 0.0 0.00 0.00 0.00 76 1011.7
20260508055751 41 93 1.7 1.7 0.00 0.00 0.00 76 1012.0
20260508055249 42 69 0.0 0.0 0.00 0.00 0.00 74 1012.1
20260508054745 42 70 0.9 1.7 0.00 0.00 0.00 73 1011.9
20260508054243 42 34 0.0 0.0 0.00 0.00 0.00 77 1012.3
20260508053740 42 34 0.0 0.0 0.00 0.00 0.00 77 1012.1
20260508053237 42 34 0.0 0.9 0.00 0.00 0.00 74 1012.3
20260508052734 42 34 0.0 0.0 0.00 0.00 0.00 73 1012.3
20260508052231 42 34 0.0 0.0 0.00 0.00 0.00 72 1012.2
20260508051727 42 34 0.0 0.0 0.00 0.00 0.00 73 1012.1
20260508051223 42 34 0.0 0.0 0.00 0.00 0.00 72 1012.0
20260508050719 42 34 0.0 0.0 0.00 0.00 0.00 73 1012.2
20260508050217 42 34 0.0 0.0 0.00 0.00 0.00 73 1012.0
20260508045712 42 34 0.0 0.0 0.00 0.00 0.00 73 1012.3
20260508045210 42 34 0.0 0.0 0.00 0.00 0.00 72 1012.0
20260508044707 42 34 0.0 0.0 0.00 0.00 0.00 72 1012.0
20260508044204 42 34 0.0 0.0 0.00 0.00 0.00 72 1012.0
20260508043659 42 34 0.0 0.0 0.00 0.00 0.00 72 1012.0
20260508043158 42 34 0.0 0.0 0.00 0.00 0.00 70 1012.0